Location: Brno
(49.2000°N, 16.6330°E)
Time: 07:45:37
(UTC+02:00)

Cosmos 2227 - Visible Passes

Search period start: 17 August 2017 00:00
Search period end: 27 August 2017 00:00
Orbit: 835 x 861 km, 71.0° (Epoch: 15 August)

Date Brightness Start Highest point End Pass type
(mag) Time Alt. Az. Time Alt. Az. Time Alt. Az.
17 Aug 4.4 20:48:33 10° NNW 20:54:11 73° WSW 20:59:49 10° SSE visible
17 Aug 6.7 22:35:15 10° WNW 22:37:21 12° W 22:39:26 10° WSW visible
18 Aug 4.5 20:35:25 10° NNW 20:41:03 74° WSW 20:46:41 10° SSE visible
18 Aug 6.7 22:22:02 10° WNW 22:24:14 12° W 22:26:26 10° WSW visible
19 Aug 6.8 22:08:49 10° WNW 22:11:07 13° W 22:13:24 10° WSW visible
20 Aug 6.8 21:55:36 10° WNW 21:57:59 13° W 22:00:23 10° WSW visible
21 Aug 6.8 21:42:23 10° WNW 21:44:52 13° W 21:47:21 10° WSW visible
22 Aug 6.8 21:29:10 10° WNW 21:31:44 13° W 21:34:19 10° WSW visible
23 Aug 6.9 21:15:57 10° WNW 21:18:37 14° W 21:21:17 10° SW visible
24 Aug 6.9 21:02:45 10° WNW 21:05:29 14° W 21:08:14 10° SW visible
25 Aug 6.9 20:49:33 10° WNW 20:52:22 14° W 20:55:11 10° SW visible
26 Aug 7.0 20:36:21 10° WNW 20:39:14 14° W 20:42:08 10° SW visible
